Madonna di Co, Italy 16 day weather forecast

Slopes altitude range 800 m - 2505m

Number of lifts: 60 Pistes: 150km

In some cases the lift and piste totals shown are for the ski domain (e.g. Three Valleys) rather than individual resort (e.g. Courchevel)

Overview

The 16 day weather forecast is fully updated 4 times every day.

    • Thu 21 FEB 2019
    • Thu 21
    • 1C 8C
    • Fri 22 FEB 2019
    • Fri 22
    • -2C 7C
    • Sat 23 FEB 2019
    • Sat 23
    • -4C 7C
    • Sun 24 FEB 2019
    • Sun 24
    • -3C 9C
    • Mon 25 FEB 2019
    • Mon 25
    • -1C 9C
    • Tue 26 FEB 2019
    • Tue 26
    • 0C 11C
    • Wed 27 FEB 2019
    • Wed 27
    • 2C 14C
    • Thu 28 FEB 2019
    • Thu 28
    • 2C 14C
    • Fri 01 MAR 2019
    • Fri 01
    • -5C 2C
    • Sat 02 MAR 2019
    • Sat 02
    • -5C 1C
    • Sun 03 MAR 2019
    • Sun 03
    • -6C -3C
    • Mon 04 MAR 2019
    • Mon 04
    • -5C 4C
    • Tue 05 MAR 2019
    • Tue 05
    • -2C 1C
    • Wed 06 MAR 2019
    • Wed 06
    • -3C -1C
    • Thu 07 MAR 2019
    • Thu 07
    • -9C -7C
    • Fri 08 MAR 2019
    • Fri 08
    • -13C -12C

Date:

Time Type 0°C level Temp Chill Snow Cloud Speed Gust Dir Press
18:00 2199m 8°C 8_4 0cm 22% 4mph 5mph 1029mB
21:00 1164m -1°C -1_5 0cm 12% 5mph 6mph 1030mB
0:00 998m -2°C -2_5 0cm 6% 5mph 6mph 1030mB
3:00 971m -2°C -2_5 0cm 1% 5mph 7mph 1030mB
6:00 998m -2°C -2_5 0cm 0% 5mph 6mph 1029mB
9:00 2039m -2°C -2_5 0cm 9% 5mph 11mph 1029mB
12:00 2058m 7°C 7_7 0cm 9% 7mph 14mph 1028mB
15:00 1980m 7°C 7_6 0cm 0% 6mph 11mph 1028mB
18:00 1223m 7°C 7_6 0cm 6% 6mph 7mph 1031mB
21:00 998m -2°C -2_6 0cm 0% 6mph 7mph 1034mB
0:00 910m -3°C -3_6 0cm 16% 6mph 6mph 1035mB
3:00 803m -4°C -4_6 0cm 0% 6mph 6mph 1034mB
6:00 720m -4°C -4_6 0cm 0% 6mph 7mph 1035mB
9:00 2057m -4°C -4_4 0cm 0% 4mph 6mph 1034mB
12:00 2098m 7°C 7_3 0cm 0% 3mph 6mph 1034mB
15:00 2142m 7°C 7_2 0cm 6% 2mph 5mph 1033mB
18:00 1209m 7°C 7_5 0cm 16% 5mph 6mph 1035mB
21:00 994m -2°C -2_5 0cm 1% 5mph 6mph 1037mB
0:00 932m -3°C -3_5 0cm 1% 5mph 5mph 1036mB
3:00 923m -3°C -3_5 0cm 0% 5mph 5mph 1036mB
6:00 953m -3°C -3_5 0cm 1% 5mph 6mph 1036mB
9:00 2221m -3°C -3_3 0cm 6% 3mph 5mph 1035mB
12:00 2301m 9°C 9_2 0cm 3% 2mph 4mph 1034mB
15:00 2374m 9°C 9_4 0cm 0% 4mph 7mph 1033mB
18:00 2308m 9°C 9_6 0cm 0% 6mph 7mph 1035mB
21:00 2271m 0°C 0_5 0cm 0% 5mph 6mph 1037mB
0:00 1801m 0°C 0_5 0cm 0% 5mph 6mph 1037mB
3:00 1237m -1°C -1_5 0cm 0% 5mph 6mph 1037mB
6:00 1187m -1°C -1_5 0cm 1% 5mph 6mph 1038mB
9:00 2249m -1°C -1_3 0cm 0% 3mph 5mph 1037mB
12:00 2296m 9°C 9_3 0cm 0% 3mph 3mph 1036mB
15:00 2383m 9°C 9_3 0cm 0% 3mph 4mph 1034mB
18:00 2446m 10°C 10_4 0cm 0% 4mph 5mph 1036mB
21:00 2442m 1°C 1_5 0cm 0% 5mph 5mph 1036mB
0:00 2635m 1°C 1_5 0cm 29% 5mph 6mph 1035mB
3:00 2800m 1°C 1_5 0cm 18% 5mph 6mph 1034mB
6:00 2794m 0°C 0_5 0cm 11% 5mph 6mph 1034mB
9:00 2977m 0°C 0_4 0cm 13% 4mph 7mph 1032mB
12:00 2970m 11°C 11_4 0cm 24% 4mph 7mph 1030mB
15:00 3075m 12°C 12_4 0cm 5% 4mph 8mph 1029mB
18:00 3147m 12°C 12_5 0cm 4% 5mph 6mph 1030mB
21:00 2963m 2°C 2_5 0cm 0% 5mph 6mph 1031mB
0:00 2964m 1°C 1_5 0cm 0% 5mph 6mph 1029mB
3:00 2999m 1°C 1_5 0cm 0% 5mph 6mph 1028mB
6:00 2930m 1°C 1_5 0cm 0% 5mph 6mph 1027mB
9:00 3185m 2°C 2_4 0cm 0% 4mph 6mph 1026mB
12:00 3160m 14°C 14_1 0cm 1% 1mph 2mph 1025mB
15:00 3221m 14°C 14_1 0cm 8% 1mph 1mph 1024mB
18:00 3328m 14°C 14_3 0cm 4% 3mph 4mph 1025mB
21:00 3347m 3°C 3_3 0cm 0% 3mph 4mph 1026mB
0:00 3298m 3°C 3_4 0cm 0% 4mph 4mph 1025mB
3:00 3107m 2°C 2_4 0cm 0% 4mph 5mph 1024mB
6:00 3024m 2°C 2_4 0cm 0% 4mph 5mph 1024mB
9:00 3105m 2°C 2_2 0cm 0% 2mph 3mph 1023mB
12:00 3091m 14°C 14_2 0cm 0% 2mph 3mph 1021mB
15:00 3064m 14°C 14_3 0cm 2% 3mph 4mph 1020mB
18:00 3016m 14°C 14_3 0cm 1% 3mph 4mph 1022mB
21:00 2928m 4°C 4_5 0cm 0% 5mph 6mph 1024mB
0:00 2763m 2°C 2_5 0cm 0% 5mph 6mph 1024mB
3:00 1424m -5°C -5_6 0cm 2% 6mph 7mph 1024mB
6:00 1344m -5°C -5_6 0cm 2% 6mph 6mph 1025mB
9:00 2172m -5°C -5_4 0cm 87% 4mph 5mph 1024mB
12:00 2384m 2°C 2_2 0cm 89% 2mph 2mph 1022mB
15:00 2418m 2°C 2_2 0cm 94% 2mph 3mph 1021mB
18:00 1686m 2°C 2_3 0cm 95% 3mph 3mph 1023mB
21:00 1536m -4°C -4_3 0cm 90% 3mph 3mph 1024mB
0:00 1444m -5°C -5_2 0cm 84% 2mph 2mph 1024mB
3:00 1449m -5°C -5_3 0cm 78% 3mph 3mph 1022mB
6:00 1380m -5°C -5_4 0cm 80% 4mph 5mph 1022mB
9:00 2072m -5°C -5_6 0cm 90% 6mph 7mph 1020mB
12:00 2295m 1°C 1_6 0cm 92% 6mph 7mph 1017mB
15:00 2339m 2°C 2_5 0cm 99% 5mph 6mph 1015mB
18:00 1669m 2°C 2_8 0cm 73% 8mph 8mph 1016mB
21:00 1570m -4°C -4_7 0cm 99% 7mph 8mph 1015mB
0:00 1551m -4°C -4_9 0cm 94% 9mph 10mph 1015mB
3:00 1616m -4°C -4_8 2cm 100% 8mph 10mph 1015mB
6:00 1321m -6°C -6_6 2cm 100% 6mph 8mph 1017mB
9:00 1540m -6°C -6_9 1cm 85% 9mph 12mph 1018mB
12:00 1761m -3°C -3_8 0cm 44% 8mph 15mph 1018mB
Morning 0.0260417mm 0 1504m -5°C -5_5 1cm 58% 5mph 6mph 1023mB
Afternoon 0mm 0 2435m 4°C 4_14 0cm 92% 14mph 19mph 1015mB
Morning 0.03125mm 0 1932m -1°C -1_9 1cm 100% 9mph 13mph 1012mB
Afternoon 0.729167mm 0.0625 2073m 1°C 1_7 6cm 100% 7mph 10mph 1009mB
Morning 0.84375mm 0.5 1707m -3°C -3_8 7cm 96% 8mph 11mph 1005mB
Afternoon 0.557292mm 0.0625 1883m -1°C -1_8 4cm 80% 8mph 10mph 1006mB
Morning 0.0260417mm 0 962m -8°C -8_11 0cm 88% 11mph 16mph 1013mB
Afternoon 0.140625mm 0.0625 977m -7°C -7_17 1cm 100% 17mph 19mph 1018mB
Morning 0.197917mm 0.25 114m -12°C -12_14 2cm 100% 14mph 21mph 1028mB
Afternoon 0.28125mm 0.5 224m -12°C -12_18 4cm 100% 18mph 23mph 1032mB
Morning 0.140625mm 0.0625 0m -20°C -20_1 1cm 95% 1mph 2mph 1039mB
Afternoon 0mm 0 1777m -2°C -2_4 0cm 39% 4mph 4mph 1029mB

16 day outlook at a glance

Forecast issued: 21/02/2019 18:13:14

Chat

Your comments and questions. In a resort? Let us know what it's like!


Characters left 250

For terms and conditions see Readers Comments on the Cookie and privacy policy page.